Location: Austin, TX
(30.3000°N, 97.7500°W)
Time: 02:24:12
(UTC-05:00)

Daily predictions for brighter satellites

Satellite Brightness Start Highest point End
(mag) Time Altitude Azimuth Time Altitude Azimuth Time Altitude Azimuth
SEDSat Delta rocket 4.4 04:44:50 49° E 04:44:50 49° E 04:48:44 10° E
Cosmos 2263 Rocket 3.8 04:42:06 25° SE 04:43:41 29° ESE 04:48:31 10° NE
Cosmos 1655 Rocket 4.0 04:46:17 10° N 04:52:37 75° E 04:53:00 73° ESE
Cosmos 1140 Rocket 4.2 04:55:04 50° NE 04:55:04 50° NE 04:58:59 10° NNE
Okean O Rocket 3.2 04:53:38 10° NE 04:57:29 31° E 04:57:52 30° ESE
ASTEX 1 3.9 04:55:21 10° NNE 04:59:44 56° ENE 04:59:44 56° ENE
ADEOS II 2.2 05:00:29 10° NNE 05:05:07 70° NNE 05:05:07 70° NNE
Cosmos 1428 Rocket 4.3 05:03:06 10° N 05:09:15 81° W 05:09:47 74° SSW
GOES 2 Rocket 4.0 05:11:05 40° ESE 05:11:05 40° ESE 05:14:10 10° E
OAO 3 Rocket 3.8 05:11:21 50° ESE 05:11:21 50° ESE 05:14:49 10° ESE
CZ-4B R/B 4.0 05:12:30 10° NNE 05:17:36 47° E 05:22:37 10° S
DELTA 2 R/B (1) 4.4 05:17:51 37° NNW 05:18:21 37° NNW 05:23:31 10° NE
CZ-4B R/B 3.8 05:14:39 10° NNE 05:17:34 44° NNE 05:17:34 44° NNE
Okean 1 4.5 05:18:46 34° SE 05:19:44 41° E 05:23:29 10° NNE
Okean 1 Rocket 3.8 05:16:54 10° N 05:20:03 46° N 05:20:03 46° N
Meteor 1-18 Rocket 4.5 05:21:31 17° S 05:26:12 73° E 05:32:07 10° NNE
Palapa 6 Rocket 4.4 05:26:21 40° SSW 05:27:14 42° S 05:33:47 10° ESE
Cosmos 614 Rocket 4.0 05:28:45 56° NW 05:28:45 56° NW 05:33:21 10° N
MOS 1-B 4.3 05:23:04 10° N 05:28:42 56° WNW 05:29:11 55° W
Cosmos 220 Rocket 4.1 05:31:40 51° SSE 05:32:34 69° ESE 05:36:50 10° NNE
Cosmos 1500 4.3 05:29:45 10° N 05:33:20 44° E 05:36:57 10° SSE
Atlas Centaur 2 2.1 05:35:07 50° SW 05:36:15 62° SSE 05:40:53 10° E
H-2A R/B 3.7 04:48:33 10° W 05:44:23 79° SSW 05:49:40 10° ESE
Meteor 1-31 Rocket 3.6 05:41:59 10° NNE 05:45:45 50° E 05:49:30 10° S
Cosmos 1607 3.9 05:45:59 33° SW 05:48:45 64° WNW 05:55:02 10° NNE
CZ-4B DEB 4.1 05:43:22 10° N 05:48:48 75° WNW 05:53:45 13° SSW
Cosmos 1603 3.6 05:45:46 10° NNW 05:51:22 69° WSW 05:57:00 10° S
Cosmos 1975 Rocket 3.3 05:54:57 38° WSW 05:56:04 47° W 06:00:21 10° N
Cosmos 1544 Rocket 4.4 05:57:30 10° N 06:01:44 50° E 06:05:56 10° SSE
PSLV R/B 4.3 05:58:07 10° NNW 06:01:41 30° WNW 06:01:41 30° WNW
Landsat 4 4.1 05:58:50 10° SSE 06:02:35 66° ENE 06:06:24 10° N
ASC 2 Rocket 4.0 06:03:54 24° SW 06:05:25 32° S 06:09:17 10° ESE
PAYLOAD B 4.5 06:01:39 10° N 06:06:54 46° WNW 06:11:39 12° SW
Cosmos 1455 Rocket 3.7 06:05:47 10° N 06:10:02 56° E 06:14:16 10° SSE
Cosmos 1741 Rocket 4.4 06:07:59 23° SW 06:10:44 39° WNW 06:15:38 10° N
ATLAS 3B R/B 3.1 06:04:43 10° SSW 06:12:12 75° ESE 06:19:27 10° NNE
Cosmos 1743 3.5 06:11:15 10° N 06:15:06 54° E 06:18:54 10° SSE
Cosmos 1666 4.2 06:11:44 10° NNE 06:15:17 38° E 06:18:49 10° SSE
Cosmos 1437 Rocket 2.8 06:13:54 10° NNW 06:17:45 56° W 06:21:40 10° S
Cosmos 1943 3.1 06:12:48 10° NNW 06:18:31 81° WSW 06:24:10 10° SSE
Cosmos 1844 Rocket 4.0 06:15:31 10° S 06:20:47 42° ESE 06:26:05 10° NE
Cosmos 1536 Rocket 3.5 06:17:01 10° S 06:21:18 89° ESE 06:25:39 10° N
GPS 2-05 Rocket1 3.9 06:24:01 14° NW 06:26:12 32° N 06:29:00 10° ENE
Cosmos 2263 Rocket 3.1 06:23:52 16° WSW 06:27:27 29° WNW 06:32:22 10° N
SEDSat Delta rocket 3.5 06:24:58 15° W 06:29:41 69° SSW 06:34:40 10° ESE
Intelsat 5-2 Rocket 4.1 06:29:21 14° SW 06:31:34 33° S 06:37:02 10° ESE
S3M 4.2 06:26:17 10° S 06:32:27 78° E 06:38:45 10° N
Okean O Rocket 3.1 06:30:48 10° NNW 06:33:34 17° WNW 06:35:20 13° W
Meteor 1-28 Rocket 3.3 06:32:22 10° SSE 06:36:03 79° ENE 06:39:47 10° N
ISS -3.9 06:33:23 10° NW 06:36:40 89° SW 06:39:57 10° SE
Meteor 1-19 Rocket 4.3 06:31:17 10° SSW 06:37:07 63° W 06:42:55 10° N
Skynet4D Del rocket 4.2 06:32:10 11° WSW 06:37:13 47° SSE 06:42:20 10° E
USA 215 4.4 06:32:13 10° ESE 06:38:19 44° NE 06:44:27 10° NNW
Meteor 2-4 Rocket 3.6 06:42:39 10° SSW 06:48:04 72° W 06:53:41 10° N
Cosmos 1975 3.9 06:44:44 10° NW 06:48:08 25° W 06:51:30 10° SSW
NOAA 6 4.1 06:46:41 10° N 06:51:47 61° WNW 06:56:53 10° SSW
NOSS 3-2 (A) 4.1 06:46:17 10° SSW 06:51:58 57° ESE 06:58:03 10° NE
Cosmos 1844 4.3 06:46:32 10° S 06:51:59 61° ESE 06:57:32 10° NNE
Cosmos 332 Rocket 3.7 06:47:13 10° NNW 06:52:00 74° WSW 06:56:45 10° S
OAO 3 Rocket 4.4 06:49:33 10° W 06:53:21 25° SSW 06:57:11 10° SSE
CZ-3 R/B 2.0 06:54:47 10° WSW 07:09:55 71° S 07:14:10 10° E
